STARLINK-34290

Last updated on Mon Aug 25 2025 00:02:05 GMT+0000 (Coordinated Universal Time)

1 64929U 25157AB 25235.31191438 .00036842 00000+0 66609-3 0 9999 2 64929 53.1597 198.3002 0001141 103.6548 256.4589 15.49362640 5597
UTC large
Height (km)
Speed (km/s)
/
Latitude / Longitude
Inclination (degrees)
Orbital Period (minutes)
Azimuth
Elevation
Range (km)
Doppler Factor

Next 0 passes for location: London (51.5072 / 0.1276)

Sorry there are no passes over London.